Tyler, TX

7:26 AM CDT on June 26, 2017 (GMT -0500)
Tyler Pounds

Weather History for KTYR - August, 2012

Change the Weather History Date:

Monday, August 27, 2012

  Actual Average Record
Temperature  
Mean Temperature 82 °F 82 °F  
Max Temperature 89 °F 92 °F 105 °F (2011)
Min Temperature 74 °F 72 °F 58 °F (1970)
Degree Days  
Heating Degree Days 0 0  
Month to date heating degree days 0 0  
Since 1 June heating degree days 0 0  
Since 1 July heating degree days 0 0  
Cooling Degree Days 17 17  
Month to date cooling degree days 541 499  
Year to date cooling degree days 2334 1857  
Since 1 June cooling degree days 1675 1488  
Growing Degree Days 30 (Base 50)    
Moisture  
Dew Point 74 °F    
Average Humidity 78    
Maximum Humidity 94    
Minimum Humidity 61    
Precipitation  
Precipitation 0.51 in 0.09 in 4.53 in (1946)
Month to date precipitation 2.14 2.42  
Year to date precipitation 23.31 28.82  
Snow  
Snow 0.00 in - - ()
Month to date snowfall 0.0  
Since 1 June snowfall 0.0  
Since 1 July snowfall 0.0  
Snow Depth 0.00 in    
Sea Level Pressure  
Sea Level Pressure 30.00 in    
Wind  
Wind Speed 3 mph (SW)    
Max Wind Speed 23 mph    
Max Gust Speed 29 mph    
Visibility 8 miles    
Events Fog , Rain , Thunderstorm    
T = Trace of Precipitation, MM = Missing Value Source: NWS Daily Summary

Daily Weather History Graph

Daily Weather History Graph

Search for Another Location

Airport or City:

Trip Planner

Search our weather history database for the weather conditions in past years. The results will help you decide how hot, cold, wet, or windy it might be!

Date:

Astronomy

Aug. 27, 2012 Rise Set
Actual Time 6:53 AM CDT 7:51 PM CDT
Civil Twilight 6:28 AM CDT 8:16 PM CDT
Nautical Twilight 5:58 AM CDT 8:46 PM CDT
Astronomical Twilight 5:27 AM CDT 9:17 PM CDT
Moon 5:03 PM CDT (8/27) 2:48 AM CDT (8/27)
Length of Visible Light 13h 48m
Length of Day
12h 57m
Waxing Gibbous, 83% of the Moon is Illuminated
Aug 27
Waxing Gibbous
Aug 31
Full
Sep 8
Last Quarter
Sep 15
New
Sep 22
First Quarter

Hourly Weather History & Observations

Time (CDT) Temp. Heat Index Dew Point Humidity Pressure Visibility Wind Dir Wind Speed Gust Speed Precip Events Conditions
12:53 AM 77.0 °F - 73.0 °F 88% 30.01 in 10.0 mi Calm Calm - N/A   Clear
1:53 AM 75.0 °F - 73.0 °F 94% 30.01 in 9.0 mi Calm Calm - 0.01 in   Clear
2:53 AM 75.9 °F - 73.0 °F 91% 30.00 in 10.0 mi ESE 3.5 mph - N/A   Partly Cloudy
3:53 AM 75.0 °F - 72.0 °F 90% 30.01 in 10.0 mi SSE 3.5 mph - 0.01 in   Partly Cloudy
4:53 AM 75.0 °F - 73.0 °F 94% 30.01 in 10.0 mi Calm Calm - N/A   Partly Cloudy
6:53 AM 75.0 °F - 72.0 °F 90% 30.04 in 9.0 mi Calm Calm - N/A   Mostly Cloudy
7:53 AM 75.9 °F - 73.0 °F 91% 30.05 in 9.0 mi Calm Calm - N/A   Mostly Cloudy
8:53 AM 78.1 °F - 73.9 °F 87% 30.06 in 9.0 mi SSW 3.5 mph - N/A   Overcast
9:53 AM 82.0 °F 87.9 °F 73.9 °F 76% 30.05 in 10.0 mi WNW 4.6 mph - N/A   Scattered Clouds
10:53 AM 86.0 °F 93.0 °F 73.0 °F 65% 30.05 in 10.0 mi NW 6.9 mph - N/A   Partly Cloudy
11:53 AM 86.0 °F 93.0 °F 73.0 °F 65% 30.04 in 10.0 mi WNW 4.6 mph - N/A   Scattered Clouds
12:53 PM 84.0 °F 91.2 °F 73.9 °F 72% 30.01 in 10.0 mi WSW 6.9 mph - N/A   Overcast
1:53 PM 84.9 °F 93.3 °F 75.0 °F 72% 29.98 in 10.0 mi Calm Calm - 0.00 in Rain Light Rain
2:15 PM 84.2 °F 92.3 °F 75.2 °F 74% 30.02 in 10.0 mi WSW 15.0 mph 23.0 mph 0.00 in Rain , Thunderstorm Light Thunderstorms and Rain
2:29 PM 78.8 °F - 75.2 °F 89% 30.02 in 2.5 mi WNW 15.0 mph - 0.00 in Rain , Thunderstorm Heavy Thunderstorms and Rain
2:33 PM 77.0 °F - 73.4 °F 89% 30.03 in 0.8 mi NNW 20.7 mph 28.8 mph 0.01 in Rain , Thunderstorm Heavy Thunderstorms and Rain
2:38 PM 75.2 °F - 71.6 °F 89% 30.03 in 0.5 mi ENE 10.4 mph 28.8 mph 0.01 in Fog , Rain , Thunderstorm Heavy Thunderstorms and Rain
2:51 PM 75.2 °F - 71.6 °F 89% 30.02 in 1.0 mi East 3.5 mph 16.1 mph 0.02 in Rain , Thunderstorm Heavy Thunderstorms and Rain
2:53 PM 75.9 °F - 71.1 °F 85% 29.99 in 1.0 mi Calm Calm - 0.02 in Rain , Thunderstorm Heavy Thunderstorms and Rain
3:06 PM 75.2 °F - 71.6 °F 89% 30.00 in 3.0 mi ESE 3.5 mph - 0.02 in Rain , Thunderstorm Thunderstorms and Rain
3:43 PM 80.6 °F 87.1 °F 77.0 °F 89% 29.99 in 10.0 mi SSE 6.9 mph - 0.05 in   Mostly Cloudy
3:51 PM 80.6 °F 88.1 °F 78.8 °F 94% 29.99 in 10.0 mi SSE 6.9 mph - 0.05 in Thunderstorm Scattered Clouds
3:53 PM 81.0 °F 88.6 °F 78.1 °F 91% 29.96 in 10.0 mi SSE 6.9 mph - 0.06 in Thunderstorm Scattered Clouds
4:06 PM 82.4 °F 89.5 °F 75.2 °F 79% 29.99 in 10.0 mi SE 10.4 mph - 0.01 in   Clear
4:53 PM 82.0 °F 87.4 °F 73.0 °F 74% 29.95 in 10.0 mi SSE 5.8 mph - 0.04 in   Clear
5:53 PM 86.0 °F 92.2 °F 72.0 °F 63% 29.93 in 10.0 mi West 3.5 mph - 0.03 in   Clear
6:53 PM 84.9 °F 91.4 °F 73.0 °F 67% 29.92 in 10.0 mi SW 3.5 mph - 0.02 in   Clear
7:53 PM 82.0 °F 88.6 °F 75.0 °F 79% 29.93 in 10.0 mi Calm Calm - 0.03 in   Clear
8:53 PM 79.0 °F - 75.0 °F 88% 29.93 in 10.0 mi NNW 3.5 mph - 0.09 in   Clear
9:53 PM 78.1 °F - 73.9 °F 87% 29.95 in 10.0 mi Calm Calm - 0.08 in   Clear
10:53 PM 78.1 °F - 73.9 °F 87% 29.95 in 10.0 mi Calm Calm - 0.07 in   Clear
11:53 PM 78.1 °F - 73.9 °F 87% 29.96 in 9.0 mi North 4.6 mph - 0.05 in   Clear